Weather in Posyolok Biryulinskogo Zverosovkhoza

Russia / Republic of Tatarstan     55°58′38″N   49°23′01″E
temp.,
°C
wind,
m/s
gust,
m/s
humid.,
%
clouds,
%
prec.,
mm/h
press.,
hPa
HPBL,
m
14 may, fri
fri1400:00+18sse5146178 0.0 1021294
03:00+15sse357440 0.0 102277
06:00+18se3107280 0.3 1022280
09:00+22sse7104883 0.3 1021624
12:00+25s71040100 0.0 10201036
15:00+26s61143100 0.0 10191458
18:00+22ssw49560 0.0 1018249
21:00+18s3365100 0.0 101938
15 may, sat
sat1500:00+17ssw2373100 0.0 101929
03:00+16s2279100 0.0 101919
06:00+18sse377497 0.0 1019204
09:00+23ssw6952100 0.1 1019437
12:00+27ssw7103746 0.0 1018924
15:00+27s710395 0.0 10181064
18:00+23s613495 0.0 1017366
21:00+18s4125963 0.0 1017199
16 may, sun
sun1600:00+17s3761100 0.0 1017101
03:00+16s336189 0.0 101739
06:00+18s4116229 0.0 1018274
09:00+23s6948100 0.0 1017468
12:00+27ssw7103799 0.0 10171121
15:00+28ssw7113998 0.0 10162412
18:00+23s41055100 0.0 1016207
21:00+19ssw336164 0.0 101634
17 may, mon
mon1700:00+18sw3365100 0.0 101637
03:00+16ssw227173 0.0 101720
06:00+19wsw236985 0.0 1018118
09:00+24sw235118 0.0 1018605
12:00+27sw353964 0.0 10181382
15:00+29sw463612 0.0 10172032
18:00+25sw355782 0.3 1017113
21:00+19se225556 4.3 101712
18 may, tue
tue1800:00+18ssw116058 0.0 101811
03:00+16s337028 0.0 101830
06:00+20sse226314 0.0 101881
09:00+25s454842 0.0 1017427
12:00+26s454399 0.0 1017705
15:00+28s453796 0.0 10171023
18:00+25sse2249100 0.0 101624
21:00+20se3354100 0.0 101616